C/2017 K5 ( PanSTARRS )

Japanese version
Home page
Updated on November 23, 2017

---------------------------------------------------------------------

* Profile

Discovery Date May 27, 2017
Magnitude 22.0 mag
Discoverer Pan-STARRS 1 telescope (Haleakala)

* Pictures

* Orbital Elements

Epoch 2020 Mar. 12.0 TT = JDT 2458920.5
T 2020 Mar. 24.29588 TT                                 MPCW
q   7.6772665            (2000.0)            P               Q
z  -0.0008520      Peri.  171.85280     +0.19350277     +0.16053671
 +/-0.0000326      Node   102.37449     -0.94673176     +0.28937789
e   1.0065413      Incl.   82.26327     -0.25740174     -0.94365693
From 23 observations 2017 May 27-Oct. 14, mean residual 0".3.

* Magnitudes Graph

        m1 = 6.0 + 5 log d + 10.0 log r

---------------------------------------------------------------------

The orbital elements are published on M.P.E.C. 2017-V13.
The magnitudes graphs are made with Comet for Windows.

---------------------------------------------------------------------

Copyright(C) Seiichi Yoshida (comet@aerith.net). All rights reserved.